Flag for Croatia Weather past 2 weeks in Dubrovnik, Croatia

Now
46 °F

Passing clouds.


Feels Like: 39 °F
Forecast: 39 / 46 °F
Wind: 21 mph from Northeast

Location: Dubrovnik / Cilipi

Current Time: Jan 28, 2015 at 7:51:08 PM

Latest Report: Jan 28, 2015 at 7:30 PM


Visibility: N/A

Pressure: 29.80 "Hg

Humidity: 43%

Dew point: 25 °F

Location of DubrovnikLocation

Historic Weather in Dubrovnik — Graph

°F

Dubrovnik temperature yesterday

Maximum temperature yesterday: 50 °F (at 12:30 PM)
Minimum temperature yesterday: 39 °F (at 6:30 PM)
Average temperature yesterday: 44 °F

Past Weeks' High & Low Weather Summary

 TemperatureHumidityPressure
High59 °F (Jan 24, 2:30 PM)100% (Jan 18, 9:30 AM)30.30 "Hg (Jan 18, 9:30 AM)
Low32 °F (Jan 14, 3:30 AM)31% (Jan 14, 7:00 AM)29.56 "Hg (Jan 23, 1:30 AM)
Average49 °F71%29.95 "Hg
* Reported Jan 13 6:00 PM — Jan 28 6:30 PM, Dubrovnik, Weather by CustomWeather, © 2014

Note: Actual official high and low records may vary slightly from our data, if they occured in-between our weather recording intervals... More about our weather records

Advertising

Dubrovnik weather history for previous 24 hours

 ConditionsComfort  
Time TempWeatherWind HumidityBarometerVisibility
6:30 PM
Jan 28
46 °FPassing clouds.21 mph43%29.80 "HgN/A
6:00 PM46 °FPassing clouds.15 mph46%29.80 "HgN/A
5:30 PM45 °FPassing clouds.7 mph76%29.80 "HgN/A
5:00 PM46 °FPassing clouds.7 mph66%29.80 "HgN/A
4:30 PM46 °FPassing clouds.7 mph66%29.80 "HgN/A
4:00 PM48 °FScattered clouds.3 mph62%29.80 "HgN/A
3:30 PM48 °FScattered clouds.5 mph62%29.80 "HgN/A
3:00 PM48 °FScattered clouds.5 mph54%29.80 "HgN/A
2:30 PM50 °FScattered clouds.3 mph54%29.80 "HgN/A
2:00 PM50 °FScattered clouds.6 mph50%29.80 "HgN/A
1:30 PM50 °FSunny.6 mph50%29.80 "Hg10 mi
1:00 PM50 °FPassing clouds.6 mph50%29.80 "HgN/A
12:30 PM50 °FSunny.1 mph47%29.80 "Hg10 mi
12:00 PM50 °FPassing clouds.2 mph50%29.83 "HgN/A
11:30 AM50 °FPassing clouds.3 mph47%29.83 "HgN/A
11:00 AM48 °FSunny.5 mph54%29.83 "Hg10 mi
10:30 AM50 °FSunny.1 mph43%29.80 "Hg10 mi
10:00 AM50 °FSunny.3 mph47%29.80 "Hg10 mi
9:30 AM48 °FPassing clouds.5 mph50%29.80 "HgN/A
9:00 AM46 °FPassing clouds.10 mph50%29.80 "HgN/A
8:30 AM45 °FScattered clouds.13 mph49%29.80 "HgN/A
8:00 AM45 °FBroken clouds.12 mph53%29.80 "HgN/A
7:30 AM45 °FScattered clouds.14 mph53%29.80 "HgN/A
7:00 AM43 °FPassing clouds.13 mph57%29.80 "HgN/A
6:30 AM45 °FLight rain. Passing clouds.6 mph57%29.80 "HgN/A
6:00 AM45 °FPassing clouds.14 mph53%29.77 "HgN/A
5:30 AM45 °FPassing clouds.12 mph53%29.77 "HgN/A
5:00 AM45 °FPassing clouds.9 mph57%29.77 "HgN/A
4:30 AM43 °FPassing clouds.8 mph66%29.77 "HgN/A
4:00 AM45 °FPassing clouds.6 mph61%29.77 "HgN/A
3:30 AM43 °FPassing clouds.9 mph71%29.77 "HgN/A
3:00 AM41 °FClear.7 mph76%29.77 "Hg10 mi
2:30 AM41 °FPassing clouds.7 mph76%29.80 "HgN/A
2:00 AM43 °FPassing clouds.9 mph66%29.80 "HgN/A
1:30 AM43 °FPassing clouds.9 mph66%29.80 "HgN/A
1:00 AM43 °FPassing clouds.6 mph66%29.80 "HgN/A
12:30 AM43 °FPassing clouds.7 mph66%29.80 "HgN/A
12:00 AM43 °FPassing clouds.6 mph66%29.80 "HgN/A
11:30 PM
Jan 27
45 °FPassing clouds.8 mph61%29.80 "HgN/A
11:00 PM45 °FPassing clouds.6 mph61%29.80 "HgN/A
10:30 PM43 °FPassing clouds.5 mph71%29.80 "HgN/A
10:00 PM43 °FPassing clouds.8 mph71%29.80 "HgN/A
9:30 PM41 °FPassing clouds.7 mph76%29.80 "HgN/A
9:00 PM41 °FPassing clouds.5 mph76%29.83 "HgN/A
8:30 PM41 °FPassing clouds.5 mph76%29.83 "HgN/A
8:00 PM39 °FPassing clouds.3 mph75%29.83 "HgN/A
7:30 PM39 °FClear.2 mph81%29.83 "Hg10 mi
7:00 PM39 °FClear.No wind81%29.83 "Hg10 mi
Weather by CustomWeather, © 2014

See weather overviewHow to use our weather pages